{"data":{"norad_id":36095,"intl_designator":"2009-063A","name":"COSMOS 2455","alt_names":[],"object_type":"PAYLOAD","status":"ACTIVE","operator":null,"country":"CIS","launch_date":"2009-11-20","launch_site_code":"PLMSC","launch_vehicle":null,"mission":null,"orbit_class":"UNKNOWN","rcs_meters":12.1791,"size_class":null,"mass_kg":null,"dimensions":null,"purposes":[],"wikipedia_slug":null,"has_3d_model":false,"image_url":null,"decayed_at":null,"tle_current":{"epoch":"2026-05-24T21:05:04.661088Z","epoch_age_seconds":95694,"freshness":"FRESH","line1":"1 36095U 09063A   26144.87852617 -.00000013  00000+0  44319-4 0  9991","line2":"2 36095  67.1482 309.5855 0003681 253.1090 106.9592 13.97048434841879","mean_motion":13.97048434,"eccentricity":0.0003681,"inclination_deg":67.1482,"raan_deg":309.5855,"arg_perigee_deg":253.109,"mean_anomaly_deg":106.9592,"bstar":4.4319e-5,"rev_number":84187,"period_min":103.07445074592,"perigee_km":901.35332001518,"apogee_km":906.71445422227,"semimajor_km":7282.1708871187,"source":"CELESTRAK","updated_at":"2026-05-25T13:37:55.187999Z"}}}